This is the latest recevied weather packets stored in our database for station/object KC9GSD. If no packets are shown the sender has not sent any weather packets the latest 10 day(s).
| Time | Temp. | Humidity | Pressure | Rain* | Wind** | Luminosity | Snow |
|---|---|---|---|---|---|---|---|
| 1777530539 | 15.56° C | 95% | 1011.8 hPa | 6.1 mm | - | 0 W/m² | - |
| 1777530235 | 16.11° C | 95% | 1011.9 hPa | 1.78 mm | - | 0 W/m² | - |
| 1777529932 | 16.11° C | 95% | 1012.1 hPa | 1.27 mm | - | 0 W/m² | - |
| 1777529629 | 16.11° C | 95% | 1011.9 hPa | 1.27 mm | - | 0 W/m² | - |
| 1777529326 | 16.67° C | 95% | 1012 hPa | 1.78 mm | - | 0 W/m² | - |
| 1777529022 | 16.67° C | 95% | 1012 hPa | 4.83 mm | - | 0 W/m² | - |
| 1777528718 | 16.67° C | 95% | 1012.1 hPa | 6.1 mm | - | 0 W/m² | - |
| 1777528415 | 16.67° C | 95% | 1012.4 hPa | 6.1 mm | - | 0 W/m² | - |
| 1777528114 | 16.67° C | 95% | 1012.7 hPa | 6.1 mm | - | 0 W/m² | - |
| 1777527811 | 16.67° C | 94% | 1012.5 hPa | 4.83 mm | - | 0 W/m² | - |
| 1777527506 | 16.67° C | 94% | 1012.7 hPa | 6.1 mm | - | 0 W/m² | - |
| 1777527202 | 16.67° C | 94% | 1012.7 hPa | 43.69 mm | - | 0 W/m² | - |
| 1777526898 | 17.22° C | 92% | 1012.9 hPa | 50.29 mm | - | 0 W/m² | - |
| 1777526593 | 17.78° C | 90% | 1013.2 hPa | 16.76 mm | - | 0 W/m² | - |
| 1777526293 | 18.33° C | 86% | 1013 hPa | 0 mm | - | 0 W/m² | - |
| 1777525989 | 18.33° C | 82% | 1012.4 hPa | 0 mm | - | 0 W/m² | - |
| 1777525687 | 18.33° C | 81% | 1012.1 hPa | 0 mm | - | 0 W/m² | - |
| 1777525384 | 18.33° C | 84% | 1011.5 hPa | 0 mm | - | 0 W/m² | - |
| 1777525080 | 18.33° C | 85% | 1011.6 hPa | 0 mm | - | 0 W/m² | - |
| 1777524776 | 18.33° C | 85% | 1011.7 hPa | 0 mm | - | 0 W/m² | - |
| 1777524475 | 18.33° C | 84% | 1011.6 hPa | 0 mm | - | 0 W/m² | - |
| 1777524171 | 18.89° C | 84% | 1011.6 hPa | 0 mm | - | 0 W/m² | - |
| 1777523867 | 18.89° C | 84% | 1011.3 hPa | 0 mm | - | 0 W/m² | - |
| 1777523564 | 18.89° C | 84% | 1011.3 hPa | 0 mm | - | 0 W/m² | - |
| 1777523260 | 18.89° C | 86% | 1011.4 hPa | 0 mm | - | 0 W/m² | - |
* Rain latest hour (hover to see other rain measurements)
** Current wind speed in m/s (hover to see current wind gust speed)